Location: Kielce
(50.8833°N, 20.6167°E)
Time: 23:40:44
(UTC+01:00)

ISS - Visible Passes

Search period start: 21 January 2018 00:00
Search period end: 31 January 2018 00:00
Orbit: 402 x 407 km, 51.6° (Epoch: 22 January)

Date Brightness Start Highest point End Pass type
(mag) Time Alt. Az. Time Alt. Az. Time Alt. Az.
26 Jan -1.2 18:55:41 10° SW 18:56:24 15° SSW 18:56:24 15° SSW visible
27 Jan -2.2 18:03:52 10° SSW 18:06:25 22° SE 18:06:25 22° SE visible
28 Jan -1.6 17:12:29 10° S 17:14:18 14° SE 17:16:08 10° ESE visible
28 Jan -2.3 18:47:02 10° SW 18:49:02 32° SW 18:49:02 32° SW visible
29 Jan -3.0 17:54:54 10° SW 17:57:57 38° SSE 17:58:54 30° ESE visible
29 Jan -0.6 19:31:01 10° W 19:31:34 14° W 19:31:34 14° W visible
30 Jan -2.3 17:02:57 10° SSW 17:05:42 25° SSE 17:08:27 10° E visible
30 Jan -3.4 18:38:37 10° WSW 18:41:23 60° WSW 18:41:23 60° WSW visible
